Regional Weather Roundup
Issued by NWS

Home | Current Version | Previous Version | Text Only | Print | Product List | Glossary Off
Versions: 1 2 3 4 5 6 7 8 9 10 11 12 13 14 15 16 17 18 19 20 21 22 23 24 25 26 27 28 29 30 31 32 33 34 35 36 37 38 39 40 41 42 43 44 45 46 47 48 49 50

000
ASUS44 KMEG 241000
RWRTN
TENNESSEE HOURLY STATE WEATHER ROUNDUP
NATIONAL WEATHER SERVICE MEMPHIS TN
500 AM CDT TUE MAY 24 2016

TNZ002-004-019-021-049-052-054-088>092-241100-
WEST TENNESSEE

CITY           SKY/WX    TMP DP  RH WIND       PRES   REMARKS
MEMPHIS INTL   PTCLDY    68  54  60 S5        30.00R
NWS MEMPHIS      N/A     64 N/A N/A MISG        N/A
JACKSON        MOCLDY    59  56  89 CALM      30.02R
DYERSBURG      CLOUDY    64  55  72 SE5       30.01S
UNION CITY     PTCLDY    63  63 100 CALM      30.01R
PARIS          PTCLDY    57  55  94 CALM      30.04R
LEXINGTON      CLEAR     55  55 100 CALM      30.03S
$$

TNZ008-025-027-028-033-062-065-066-241100-
NORTH MIDDLE TENNESSEE

CITY           SKY/WX    TMP DP  RH WIND       PRES   REMARKS
NASHVILLE      PTCLDY    58  51  78 NE3       30.06R
CLARKSVILLE    MOCLDY    54  51  90 E3        30.05R
COOKEVILLE     CLEAR     46  46 100 CALM      30.07R
CROSSVILLE     CLEAR     49  44  83 CALM      30.11R
$$

TNZ061-075-076-078-094-096-097-241100-
SOUTH MIDDLE TENNESSEE

CITY           SKY/WX    TMP DP  RH WIND       PRES   REMARKS
TULLAHOMA      CLEAR     48  48 100 CALM      30.09R
WINCHESTER     CLEAR     52  48  87 CALM      30.09R
MCMINNVILLE    CLEAR     48  48 100 CALM      30.09R
COLUMBIA       CLEAR    N/A N/A N/A CALM      30.05R
SHELBYVILLE    MOCLDY    54  50  87 CALM      30.08R
$$

TNZ017-018-042-046-047-241100-
NORTHEAST TENNESSEE

CITY           SKY/WX    TMP DP  RH WIND       PRES   REMARKS
TRI CITIES     CLEAR     47  46  97 CALM      30.11R
$$

TNZ012-013-036-069-073-074-241100-
CENTRAL EAST TENNESSEE

CITY           SKY/WX    TMP DP  RH WIND       PRES   REMARKS
KNOXVILLE      PTCLDY    54  50  86 W5        30.09
OAK RIDGE      CLEAR     53  50  89 CALM      30.11R
GATLINBURG     CLEAR     48  46  93 CALM      30.09R
$$

TNZ083-085-099-241100-
SOUTHEAST TENNESSEE

CITY           SKY/WX    TMP DP  RH WIND       PRES   REMARKS
CHATTANOOGA    PTCLDY    56  52  86 CALM      30.09R
$$

SKY/WX REPORTED AS FAIR MEANS FEW OR NO CLOUDS BELOW
12 THOUSAND FEET.




USA.gov is the U.S. government's official web portal to all federal, state and local government web resources and services.